Theta_e
336 335 334 335 335 334 334 334 335 335 333 332 331 330 330 330 329 327 327 328 330 331 330 331 331 331 330 325 319 317 317 317 319 321 316 310 314 323 326 328 329 329 328 325 319 315 311 309 310 309 306 304 304 303 302 302 302 302 302 300 298 298 299
336 334 334 334 335 334 334 334 335 334 332 331 331 330 330 330 329 328 328 329 330 330 330 331 331 330 330 324 317 315 316 315 317 319 316 308 308 317 323 326 328 328 326 323 319 317 314 311 310 309 307 305 304 304 303 302 302 302 302 300 298 298 299
335 335 334 334 334 334 334 334 334 333 332 331 330 331 330 330 329 329 330 331 330 330 331 331 330 329 328 322 316 315 315 314 315 317 314 307 305 311 317 320 322 323 323 322 318 316 314 311 310 310 307 305 304 304 303 302 302 302 303 301 298 298 299
334 334 334 334 334 334 334 334 333 332 332 331 330 330 330 330 329 330 331 332 331 331 331 331 330 327 324 319 316 314 314 313 314 313 311 307 304 307 312 314 316 318 320 319 316 314 314 310 310 309 306 305 305 303 302 302 303 302 303 301 299 298 299
334 334 334 335 335 334 334 334 333 332 332 331 331 330 330 330 330 331 332 332 332 332 331 330 328 323 318 316 314 313 313 312 310 307 308 307 304 305 308 310 312 313 314 314 313 313 314 310 308 308 305 304 304 302 302 303 303 303 303 301 299 299 299
334 334 335 335 335 334 333 333 333 332 332 332 331 330 330 330 331 332 332 332 332 331 329 328 324 319 315 314 314 313 311 308 305 304 306 306 303 304 305 305 306 306 307 309 311 313 313 310 308 307 304 304 303 302 302 303 303 303 303 302 299 299 299
335 335 335 335 334 334 333 333 333 333 332 331 330 330 330 331 332 333 333 332 331 328 327 325 320 316 314 314 313 310 307 304 303 304 305 304 303 303 303 303 303 303 303 305 309 312 311 309 308 307 304 303 303 303 303 303 303 303 302 301 300 300 300
334 335 335 334 333 333 333 333 333 333 332 331 330 330 331 333 333 333 332 331 329 327 326 323 317 314 314 313 310 306 304 303 304 303 304 303 303 303 303 303 303 303 303 303 305 308 310 309 308 307 306 304 303 303 302 302 301 301 302 301 300 300 300
334 334 334 334 333 333 333 333 333 333 332 331 330 331 332 333 333 333 331 329 327 326 324 320 315 313 312 311 308 304 304 304 303 303 303 303 303 303 303 302 302 302 302 302 302 305 308 309 308 308 306 305 304 303 303 303 301 300 301 302 301 301 300
334 334 334 333 333 333 334 333 333 333 332 331 331 331 333 333 332 331 329 328 327 324 320 316 313 312 310 309 306 304 303 303 303 303 302 303 302 302 302 302 302 302 301 302 301 302 305 308 309 308 306 305 305 305 304 305 304 301 300 301 302 302 300
335 334 333 333 333 333 333 333 333 332 331 330 331 332 332 333 331 328 327 328 326 320 314 313 313 312 309 306 304 303 303 303 303 302 302 302 302 301 302 301 301 301 301 301 301 301 302 306 308 308 306 305 306 306 306 306 305 301 301 302 302 302 300
334 334 333 333 332 332 333 332 332 331 330 330 331 332 332 332 329 326 328 328 322 315 313 313 314 312 308 304 303 303 303 302 302 302 302 301 301 301 301 301 301 301 301 301 301 301 301 303 307 308 308 308 308 308 308 306 303 301 301 302 301 301 300
334 334 333 332 332 333 332 331 330 329 329 331 332 332 331 330 327 326 328 326 318 312 314 315 313 311 308 304 303 302 303 302 301 302 301 301 301 301 301 301 301 301 300 300 300 300 300 301 304 307 308 307 305 305 305 305 302 300 301 302 301 301 299
334 334 333 332 332 333 332 331 330 330 330 331 332 332 331 329 327 328 328 323 315 313 316 317 314 310 306 303 302 302 302 302 301 301 301 301 301 300 300 300 300 300 300 300 300 300 300 300 301 302 302 301 300 300 301 302 301 301 301 301 301 300 298
333 333 332 332 333 333 333 332 330 330 330 331 331 331 331 329 328 328 326 320 314 314 316 315 312 309 305 302 302 302 301 301 301 301 301 301 300 300 300 300 300 300 300 300 300 300 300 300 299 299 299 299 299 299 299 300 301 301 302 301 301 300 297
333 332 332 331 332 333 333 332 330 330 331 331 331 331 330 329 328 326 324 319 314 313 314 312 309 305 303 302 302 302 301 301 300 300 300 300 300 300 300 300 300 300 300 300 300 300 300 299 299 299 299 299 299 298 299 299 300 301 302 301 301 299 295
333 332 331 331 332 333 333 331 330 330 331 331 331 330 329 328 326 323 321 318 314 314 313 310 306 303 302 302 302 301 301 301 300 300 300 300 300 300 300 300 299 300 300 300 300 300 299 299 299 299 299 299 298 298 298 299 299 301 302 302 300 297 294
332 331 330 330 332 332 331 330 330 331 332 331 330 329 328 326 323 321 319 317 315 314 312 308 304 302 301 301 301 301 301 300 300 300 300 300 300 300 299 299 300 300 300 300 300 300 299 299 299 298 298 298 298 297 298 298 299 301 301 301 299 296 294
331 330 330 331 332 331 330 330 331 331 331 330 329 329 327 324 321 320 318 315 313 311 309 306 303 302 301 301 301 300 300 300 300 299 299 299 299 299 299 299 299 300 300 300 299 299 299 299 298 298 298 297 297 297 297 298 299 300 300 299 297 295 295
331 330 330 331 331 330 330 330 331 331 331 330 329 328 327 323 320 318 316 314 311 309 307 304 302 301 301 301 300 300 300 300 299 299 299 299 299 299 299 299 299 300 300 300 299 299 299 299 298 298 297 297 297 296 296 297 298 298 298 297 295 295 295
331 330 330 331 331 330 330 330 331 331 330 329 329 328 326 322 319 316 314 311 310 308 305 303 301 301 301 300 300 300 300 299 299 299 299 299 299 299 299 299 299 300 300 299 299 299 299 298 298 298 297 297 297 296 296 296 296 296 296 295 295 295 295
331 330 331 331 331 330 330 330 331 330 329 328 328 326 323 320 318 316 314 311 309 307 305 303 301 300 300 300 300 300 299 299 299 299 299 299 299 299 299 299 299 300 300 299 299 299 298 298 298 298 297 297 296 296 296 296 296 296 295 295 295 295 295
331 331 331 331 331 331 330 331 330 329 328 328 326 324 322 320 318 316 314 312 309 307 305 302 301 300 300 300 300 299 300 299 299 299 299 299 299 299 299 299 299 300 299 299 299 298 298 298 298 298 298 297 296 296 296 296 296 296 296 296 296 296 296
331 331 331 331 331 330 331 331 330 328 327 327 325 323 321 320 318 315 313 311 309 307 304 301 300 299 299 299 299 299 299 299 299 299 299 299 299 299 299 299 299 300 299 299 299 298 298 298 298 298 298 297 297 296 296 295 296 296 297 297 297 297 297
331 331 331 330 331 331 331 330 329 328 327 326 324 323 322 320 318 315 312 309 308 306 304 301 300 300 300 300 299 299 300 299 299 299 299 299 299 299 299 299 299 300 299 299 299 298 298 298 298 298 298 297 297 296 296 295 295 296 297 297 297 298 298
330 331 332 331 331 331 331 330 328 328 327 326 325 325 324 322 319 317 313 310 308 306 305 303 301 301 300 300 300 300 300 300 299 299 299 299 299 298 298 299 299 299 299 298 298 298 298 298 298 297 297 298 297 297 296 296 295 296 297 297 298 298 298
330 331 331 331 330 330 330 329 328 327 326 325 325 325 324 324 322 319 316 312 308 307 306 305 303 302 302 301 301 300 300 300 300 299 299 299 298 298 298 298 299 299 299 299 299 299 298 298 298 297 298 298 298 297 297 296 296 295 296 298 298 298 299
330 330 331 330 329 329 329 329 328 327 326 325 325 325 325 324 322 320 318 314 310 307 306 306 305 304 303 302 302 301 301 301 300 300 299 299 299 298 298 298 299 299 299 299 299 298 298 297 297 297 298 298 298 298 297 297 296 296 296 297 298 298 299
330 330 330 329 328 328 329 329 328 327 327 325 325 325 324 323 322 320 319 317 313 309 307 307 306 305 304 304 303 302 302 302 302 301 300 299 299 298 298 298 298 299 299 299 298 298 297 297 297 297 298 298 298 298 298 297 296 296 296 297 298 299 299
330 330 329 328 328 328 328 329 328 328 327 326 325 324 323 322 321 320 320 319 317 313 310 308 307 306 305 305 304 304 304 303 302 301 300 300 299 298 298 297 298 298 299 299 298 298 298 297 297 297 297 298 298 297 297 297 296 295 296 298 299 299 300
330 330 328 328 328 328 329 329 328 328 327 326 325 324 323 322 321 321 321 321 320 317 313 310 308 306 306 305 305 305 304 304 303 302 300 299 299 298 297 297 297 298 298 298 298 298 297 298 297 297 297 297 297 296 296 296 296 295 296 298 299 299 300
330 330 328 327 328 328 329 328 328 327 326 326 325 324 323 322 322 322 321 320 318 316 314 311 309 307 307 306 306 306 305 304 303 302 300 299 299 298 297 297 297 297 298 298 298 298 298 297 297 297 297 297 297 296 296 296 295 295 297 298 299 299 300
331 330 327 326 327 328 328 328 327 326 326 325 325 324 323 323 323 322 321 319 317 314 313 311 309 308 308 307 306 306 305 304 303 301 299 299 299 298 298 297 297 297 297 298 298 298 298 297 297 297 297 296 296 296 296 296 295 295 297 298 299 299 300
331 330 326 325 327 327 327 328 327 326 326 326 325 324 323 323 323 322 320 318 315 313 312 311 310 310 308 307 306 306 305 304 303 301 300 299 298 298 298 298 298 297 297 297 298 298 298 297 297 297 297 296 296 296 296 296 295 296 297 298 298 300 300
330 328 326 325 326 326 326 326 326 326 326 325 324 323 323 323 323 322 320 317 314 313 312 311 311 310 308 306 306 306 306 304 303 303 302 300 298 298 298 298 299 299 297 297 298 298 297 297 297 297 297 297 296 296 296 295 295 296 297 298 299 300 300
329 327 326 325 326 326 326 325 325 325 325 324 323 322 322 323 323 322 319 317 315 314 312 311 311 310 308 306 305 305 305 305 304 304 304 301 298 298 298 299 300 300 299 298 298 298 297 297 297 297 297 296 296 296 296 296 295 296 297 298 299 300 300
328 327 326 325 325 326 325 325 324 323 324 324 323 322 322 323 322 321 319 318 316 314 312 311 310 310 308 306 304 304 305 305 304 304 304 302 300 299 300 300 300 300 300 299 298 297 297 297 297 297 296 296 296 296 296 296 295 295 296 298 299 300 300
Wind_Speed
35 33 30 29 26 25 24 23 21 20 19 18 18 18 18 18 18 17 18 18 18 18 17 17 16 15 15 15 17 18 18 17 16 16 15 17 20 21 20 19 17 14 11 11 10 8 11 15 15 12 11 11 12 12 11 9 9 10 12 13 10 8 11
33 31 29 28 26 24 24 23 22 21 20 19 18 18 19 18 18 17 18 18 17 17 17 16 15 15 15 15 16 17 17 16 15 14 12 14 18 21 20 18 16 15 14 13 10 8 9 13 15 14 12 12 13 12 9 7 7 7 9 11 9 9 11
33 31 29 27 26 25 24 24 23 22 21 20 19 19 19 19 18 18 18 18 17 17 17 16 15 15 15 15 16 16 17 17 15 13 12 12 16 19 19 18 16 15 16 15 13 11 10 10 13 15 13 13 14 12 9 6 5 5 7 9 9 9 11
32 32 30 28 27 25 24 24 23 22 21 20 20 20 20 19 18 18 18 18 17 17 17 16 15 14 15 15 15 16 16 17 15 13 12 12 13 15 16 16 15 15 15 14 13 13 13 11 13 17 16 15 14 13 11 7 4 3 4 7 8 10 11
30 30 30 28 27 25 25 24 23 22 21 21 21 21 21 19 18 18 18 17 17 18 17 15 14 14 15 15 15 15 16 16 14 13 11 12 12 12 13 13 14 14 13 12 11 12 13 11 12 18 21 18 16 14 11 7 4 2 4 6 8 10 10
30 29 28 27 26 24 24 24 23 23 22 22 21 21 21 19 18 18 17 17 17 16 14 12 14 14 15 15 15 15 15 14 13 12 11 11 11 10 11 12 12 12 12 11 11 12 12 10 13 19 22 19 17 15 12 6 2 1 4 6 7 10 10
30 29 28 26 24 23 23 23 23 22 22 22 21 20 20 19 18 18 17 17 15 14 13 12 14 15 14 14 13 13 13 12 12 12 11 11 11 10 10 10 10 10 10 11 11 12 12 11 14 17 21 21 18 15 12 7 4 1 2 4 6 9 11
31 30 28 26 23 23 22 22 22 22 22 22 20 20 19 19 18 17 17 16 15 14 14 13 13 13 12 12 12 11 11 11 12 11 11 11 10 10 10 10 10 10 10 10 11 12 12 12 13 16 18 20 20 16 11 7 5 2 2 3 5 9 11
31 30 29 26 23 22 21 21 21 21 21 21 21 20 19 19 18 17 17 16 14 15 14 12 12 11 10 10 10 11 11 11 11 11 11 10 10 11 10 10 10 10 9 10 10 12 14 14 14 15 15 14 15 15 12 7 4 3 3 2 5 8 10
31 30 28 25 23 22 21 20 20 20 20 21 21 20 19 19 18 17 16 15 13 13 12 12 12 10 10 10 10 10 11 11 11 11 11 11 11 11 11 10 10 9 10 10 10 11 14 16 16 16 16 14 11 10 10 8 4 3 2 2 4 7 10
31 29 27 24 22 21 20 19 19 20 20 20 20 20 20 20 18 16 16 14 13 12 12 12 11 10 10 9 10 11 12 12 12 12 11 12 12 12 12 11 10 9 9 9 9 10 13 16 18 17 17 16 13 10 9 7 6 5 3 2 4 6 9
31 28 26 23 21 20 19 19 19 20 20 20 20 20 20 19 18 17 16 14 12 13 12 11 10 10 9 9 11 13 13 13 12 13 13 12 12 12 12 11 10 10 9 9 8 9 11 14 17 18 17 16 14 11 9 6 6 7 4 2 3 6 9
31 28 25 23 21 20 20 20 19 19 19 19 20 20 20 19 19 18 16 13 13 15 13 11 9 9 9 10 12 13 14 13 13 13 14 14 13 13 12 11 10 10 10 9 9 9 9 11 14 16 15 13 11 9 8 6 6 7 5 2 2 6 8
30 28 26 23 21 21 21 20 19 18 19 20 20 20 20 19 18 17 15 13 15 16 13 9 8 9 11 12 13 14 14 14 14 15 15 15 14 13 12 11 11 11 11 10 9 9 9 10 11 11 11 9 8 7 6 6 7 7 5 1 3 6 8
31 29 27 24 23 22 22 21 19 19 20 21 21 20 19 19 17 15 13 13 16 14 10 8 10 11 12 14 15 16 16 16 16 16 16 15 14 13 12 11 12 12 11 10 9 9 9 9 9 8 8 7 6 6 6 7 8 8 5 2 3 6 8
31 29 27 26 24 23 22 21 20 20 21 21 21 19 19 18 16 14 13 14 15 13 10 10 12 13 14 15 17 17 17 17 17 17 16 15 14 13 12 12 12 12 12 10 9 8 8 7 6 6 6 5 5 5 6 7 8 7 4 2 3 6 7
31 30 28 26 25 24 23 21 21 21 21 21 20 19 19 18 16 14 14 15 14 12 11 12 13 14 15 16 17 17 18 18 17 17 16 15 14 13 13 13 13 12 11 10 9 7 6 6 5 4 4 3 3 3 4 5 6 5 4 3 4 5 5
32 30 28 26 25 25 23 21 21 22 22 22 20 19 18 17 15 15 15 14 13 11 12 13 13 14 16 17 18 18 18 18 18 18 17 15 15 14 14 14 13 12 11 10 8 7 6 6 6 4 3 2 1 0 2 3 4 4 4 3 4 4 3
31 29 26 26 25 24 23 22 22 23 23 21 20 19 18 15 14 14 14 13 12 12 12 13 14 15 17 18 19 19 19 19 19 19 18 17 16 15 15 15 14 12 11 9 8 7 7 7 6 5 4 3 3 2 1 3 4 4 3 3 2 1 2
31 28 25 25 26 24 23 22 22 24 23 21 20 18 17 15 14 14 13 12 12 12 12 13 15 16 17 19 20 20 21 21 21 20 19 17 16 16 15 14 13 12 10 9 8 7 7 7 6 6 4 3 3 2 2 2 3 3 3 3 1 1 4
31 28 24 25 26 24 23 23 24 24 23 20 19 17 16 14 14 14 13 13 13 13 13 14 16 17 18 20 21 21 22 22 22 21 19 18 17 16 15 15 13 12 10 9 8 7 7 7 6 6 4 3 3 2 3 3 2 1 0 1 1 3 6
31 28 25 25 26 25 24 24 25 25 22 19 17 15 15 15 15 14 14 14 14 14 15 15 17 18 19 20 21 22 23 23 23 21 20 19 18 17 16 15 13 12 11 10 10 9 8 8 7 6 4 3 3 3 4 4 4 4 4 3 4 6 7
31 28 25 26 27 26 25 26 26 25 21 18 16 16 16 16 15 14 14 15 15 16 16 16 17 18 19 20 22 23 24 23 23 21 20 19 19 18 16 15 14 13 13 12 11 10 9 9 8 6 4 3 3 4 5 6 6 6 7 7 8 9 10
29 26 24 26 28 27 27 28 27 24 21 18 17 17 17 15 14 14 14 16 16 16 16 17 18 19 19 21 22 23 24 23 23 21 20 19 18 17 16 16 16 16 15 14 12 11 10 9 8 6 4 3 3 3 5 7 7 7 8 9 11 11 12
28 25 24 26 28 28 28 29 27 24 21 19 19 18 16 14 13 14 15 16 17 16 16 17 18 19 20 21 22 23 23 23 22 21 20 19 18 16 17 19 19 18 16 15 13 12 10 9 8 6 5 3 2 2 5 7 8 7 6 8 9 10 11
27 25 23 25 28 29 29 30 28 25 22 21 20 18 15 13 13 13 15 16 16 16 16 17 18 19 20 21 22 23 23 23 22 21 20 19 18 18 20 21 20 19 18 16 14 12 10 9 8 6 5 4 3 1 4 6 8 7 5 5 6 8 9
26 24 22 24 28 30 31 30 28 25 23 22 21 18 15 13 12 12 14 15 16 16 16 16 17 17 19 20 21 22 22 22 22 20 19 19 19 20 21 22 21 20 19 17 14 12 10 9 9 7 5 5 4 1 3 5 6 7 5 4 5 6 7
26 24 22 24 29 31 32 31 29 26 25 23 21 18 15 13 11 11 11 12 15 16 15 16 16 17 18 19 21 22 22 22 22 20 20 20 20 21 22 22 21 20 18 16 15 13 11 10 10 8 6 6 5 1 3 4 5 7 5 3 4 5 7
26 25 23 24 30 33 33 32 30 27 25 23 20 18 15 13 11 9 9 10 13 15 16 16 17 17 17 18 20 21 21 22 21 20 20 20 20 20 21 22 21 20 18 17 15 13 12 12 10 9 7 6 4 1 2 3 5 6 5 3 3 4 5
26 25 24 25 30 34 34 33 31 28 26 24 21 19 16 13 11 9 8 9 12 14 16 17 18 17 18 19 20 21 21 21 21 20 20 20 20 20 21 21 21 20 19 17 16 15 14 13 11 9 9 6 3 1 2 4 5 6 5 2 2 3 4
26 25 25 26 30 33 34 33 32 29 27 25 21 18 16 13 11 10 10 10 11 13 15 17 18 18 19 19 20 20 21 21 21 21 21 20 19 19 20 21 21 20 20 19 18 16 15 14 12 10 9 6 4 2 3 4 6 7 5 2 0 1 1
26 25 25 26 29 32 34 33 32 30 27 24 21 18 17 14 13 13 13 13 13 14 15 17 18 19 19 20 20 20 20 22 22 23 22 21 20 19 20 22 22 21 21 20 19 18 16 15 13 11 9 7 5 4 4 5 6 6 5 4 2 2 1
25 25 25 27 30 32 34 34 32 30 28 24 22 20 18 16 15 15 15 16 16 17 16 17 19 20 20 21 22 21 22 23 24 24 23 23 22 22 23 24 24 23 22 21 20 18 17 16 14 12 9 7 6 6 6 6 6 6 5 5 4 2 2
24 23 23 26 30 32 34 34 33 31 28 25 24 22 20 18 17 16 17 18 18 18 18 18 18 19 20 21 22 22 23 25 25 25 25 23 22 23 25 25 25 24 23 22 21 19 18 17 15 12 10 8 8 8 7 7 7 7 6 6 4 2 2
22 22 21 25 30 33 34 34 33 31 29 27 26 24 22 21 18 18 19 21 20 19 19 19 17 17 18 19 21 22 24 26 26 27 26 24 23 24 25 24 23 22 21 20 20 19 19 18 15 13 12 10 10 9 8 8 8 7 7 7 5 3 3
21 20 21 24 30 33 35 35 34 32 30 29 28 26 24 23 22 21 22 21 20 19 20 20 19 17 16 17 20 23 25 26 27 28 28 25 23 24 24 24 22 21 19 19 18 18 18 17 16 14 13 12 12 10 9 9 9 8 8 8 6 5 4
19 20 20 23 28 33 35 35 34 32 31 30 30 29 26 26 25 23 21 19 19 19 19 19 19 18 16 16 18 22 26 27 28 29 28 26 24 24 24 24 22 20 20 19 19 18 18 16 15 15 14 13 13 11 10 10 9 9 8 7 7 6 5
Wind_Direction
206 205 206 209 213 217 218 216 216 217 217 216 217 219 219 218 221 224 225 223 223 226 228 232 237 241 245 239 230 227 228 226 220 220 224 225 224 224 226 228 226 232 236 221 211 198 177 159 143 129 110 94 85 86 89 74 51 36 18 6 15 43 44
209 210 210 210 213 216 217 217 216 218 218 218 218 220 220 218 221 226 228 226 227 231 234 239 244 247 249 240 227 227 232 233 229 229 234 229 225 228 231 229 225 221 213 203 201 200 186 164 150 142 127 110 104 108 109 92 66 41 17 5 13 38 43
210 211 212 212 213 213 215 217 217 219 221 220 218 219 219 218 222 227 229 229 230 234 237 242 248 250 249 238 227 228 233 237 238 238 239 231 224 227 232 232 227 219 209 204 198 187 181 168 154 146 133 122 122 126 124 107 77 49 18 359 8 33 40
211 211 212 212 213 213 214 217 219 220 221 221 221 220 219 220 224 228 230 233 234 236 238 244 250 247 241 232 226 229 234 238 241 240 236 229 224 224 227 231 231 227 222 219 210 194 188 181 160 146 135 133 136 136 132 123 88 42 6 356 10 28 32
214 213 213 214 215 215 216 217 219 220 220 220 221 221 221 222 227 232 235 237 239 242 245 250 253 242 229 225 226 229 235 240 240 235 229 224 223 222 222 224 225 226 227 227 217 200 198 197 173 151 141 144 148 143 142 138 112 35 355 2 18 24 20
217 217 216 217 219 220 221 221 220 221 221 221 221 222 224 225 230 235 239 241 245 251 253 250 247 237 226 225 228 232 236 239 235 226 221 221 220 220 220 220 218 219 221 221 214 206 202 195 178 157 147 151 153 149 155 162 152 20 357 4 19 21 10
218 219 220 223 224 224 225 225 224 223 223 224 224 224 226 228 233 237 240 245 249 253 252 243 235 230 228 230 232 234 233 230 225 219 216 217 217 217 217 218 217 216 216 212 206 208 206 194 186 172 156 152 153 156 162 166 183 229 8 11 19 20 5
219 221 223 226 227 227 227 226 224 223 224 227 228 229 230 232 236 239 243 246 247 248 248 241 231 227 229 233 232 230 225 220 219 216 213 213 216 218 216 218 220 214 208 204 197 197 197 192 192 190 176 163 157 159 162 158 165 166 82 45 22 16 2
221 222 223 224 226 228 230 227 224 222 224 227 229 231 233 235 238 240 243 244 243 244 243 235 229 227 228 230 229 224 218 215 213 211 210 211 212 215 213 213 216 210 200 196 195 192 189 188 187 191 197 192 174 164 161 154 141 121 111 77 28 8 354
219 220 220 222 224 226 228 226 223 222 223 226 228 230 234 236 238 240 243 245 241 237 232 226 225 223 223 225 225 221 215 211 207 205 207 207 207 209 208 207 206 204 197 191 193 194 190 189 187 185 193 206 209 193 177 169 151 125 119 85 36 3 344
217 218 219 221 224 226 225 221 218 219 222 222 223 227 231 236 239 239 243 247 239 225 221 223 224 222 222 222 220 218 212 207 203 201 202 204 205 205 204 203 200 198 195 189 190 194 191 188 189 189 191 199 214 224 216 195 164 140 116 73 29 351 334
216 217 218 220 224 226 221 215 214 217 219 218 218 223 229 235 238 238 242 244 228 213 215 222 228 229 227 224 220 216 208 203 202 202 201 201 203 205 203 200 197 194 189 185 184 186 188 189 192 196 201 208 215 223 231 217 166 144 130 92 15 336 325
216 217 218 220 222 220 215 212 215 218 218 216 217 222 228 233 235 238 244 237 215 210 214 220 233 239 234 226 220 215 207 201 202 204 202 201 201 203 203 198 195 192 187 183 181 178 180 185 192 200 206 213 218 215 221 220 175 146 133 110 334 319 318
216 217 218 219 218 215 213 215 220 222 219 217 218 223 229 234 235 241 244 226 211 215 221 224 236 243 238 228 217 211 208 203 202 205 204 203 201 200 202 200 194 189 187 187 183 178 178 179 183 191 197 202 208 208 214 217 184 152 138 144 309 316 316
217 218 218 216 214 212 214 218 222 222 218 217 219 225 232 234 235 240 235 218 212 219 224 228 237 240 235 227 217 210 208 205 204 206 207 205 202 199 200 200 196 191 189 191 189 184 183 181 180 185 187 190 200 205 208 204 180 159 158 201 300 321 321
219 218 216 214 213 212 214 218 220 219 216 216 220 226 231 232 235 234 222 211 212 217 221 225 229 231 228 223 217 210 207 207 206 207 208 207 203 200 199 199 199 196 193 193 194 190 183 176 177 183 184 186 197 206 206 198 181 168 174 223 301 328 335
217 216 216 214 211 211 212 215 216 215 214 217 222 226 227 229 229 221 210 208 213 217 222 225 225 225 223 219 215 211 208 207 205 206 208 208 205 202 200 199 200 198 196 196 194 189 174 160 159 171 178 180 197 221 222 206 188 179 196 245 307 338 350
215 216 215 211 208 208 210 213 215 213 212 217 223 225 226 225 218 208 205 210 216 221 224 226 226 223 219 215 211 211 211 208 205 205 207 207 207 205 202 202 204 201 197 196 194 183 166 157 157 159 156 143 130 218 243 220 202 201 223 259 309 346 13
213 216 211 204 204 206 208 212 214 212 213 218 222 225 226 221 209 203 208 212 216 221 223 224 226 223 220 215 210 210 212 210 206 205 206 207 208 208 205 204 205 203 197 193 193 184 170 163 161 155 145 134 121 118 181 217 221 236 268 293 311 350 50
212 215 207 200 203 206 208 211 213 212 214 218 222 225 226 220 208 205 210 214 215 219 222 223 224 223 220 216 212 211 211 210 208 206 207 208 209 210 208 205 204 202 195 190 191 186 177 171 166 159 149 135 129 135 157 196 227 257 306 321 303 72 61
211 215 208 201 202 206 208 210 210 211 215 219 223 227 227 220 210 207 210 213 215 218 221 223 224 223 220 217 214 213 212 211 210 208 208 209 210 211 207 203 202 200 192 188 191 187 181 178 174 167 153 134 124 131 139 146 171 186 29 359 81 90 77
211 215 211 203 202 205 207 207 208 210 214 220 224 222 219 215 211 211 213 215 216 218 221 223 224 223 221 218 216 215 214 214 213 212 211 209 209 209 205 201 200 198 194 193 196 193 187 185 183 176 160 138 126 124 122 114 108 111 103 84 83 85 80
212 214 212 205 202 204 205 204 206 209 212 217 219 214 209 210 212 214 219 220 219 220 221 221 222 223 223 221 219 218 217 216 216 215 214 213 210 207 203 200 200 199 200 201 200 197 195 193 190 184 171 151 135 122 106 93 88 90 89 85 83 81 71
213 215 213 205 201 202 203 203 205 208 210 211 213 209 207 208 211 215 222 224 223 222 221 220 220 221 221 220 221 222 221 219 218 217 216 217 215 209 202 200 201 203 205 204 202 201 201 200 197 192 183 169 152 123 94 76 71 76 82 82 80 74 64
213 217 213 203 200 200 201 203 205 207 208 208 208 208 206 206 211 217 222 224 224 223 222 221 220 220 220 220 221 224 225 223 222 219 218 218 216 211 205 203 203 204 205 206 206 206 207 208 207 203 198 196 184 129 88 69 61 64 74 78 76 71 61
213 216 213 202 199 200 200 203 205 207 207 207 208 209 206 206 212 220 225 226 224 224 224 222 220 220 219 220 221 224 226 226 226 223 221 220 216 211 209 208 206 204 204 204 208 212 214 215 215 212 213 224 231 155 80 64 54 49 56 63 66 68 58
214 216 213 203 198 199 201 204 206 207 208 208 208 209 208 209 215 222 228 230 228 228 227 224 222 220 220 220 222 225 227 228 228 227 225 223 217 212 211 212 212 210 207 207 210 214 216 217 218 219 226 243 248 234 61 50 41 33 31 39 54 64 57
214 216 216 206 200 200 202 205 206 208 210 212 212 212 212 215 219 225 230 234 234 232 229 227 225 224 223 223 224 227 228 229 229 228 226 225 220 214 214 215 216 216 214 213 212 212 214 218 223 230 240 251 253 246 45 30 23 18 15 26 50 62 55
215 219 219 209 202 201 203 206 209 211 213 214 212 210 211 215 221 226 233 240 240 236 232 230 229 229 229 228 228 229 229 230 230 229 228 226 220 216 215 214 215 217 218 217 214 211 215 222 229 238 245 253 262 314 18 6 7 4 3 23 51 53 47
216 221 222 212 204 204 205 207 210 214 215 214 211 207 208 214 221 231 249 256 250 243 238 235 233 233 233 232 231 231 230 229 231 231 230 227 222 218 216 214 215 218 218 218 216 214 219 226 233 241 247 252 264 322 331 338 349 350 345 353 36 42 37
221 225 223 214 207 207 208 210 212 214 216 218 216 211 211 214 223 241 258 263 257 249 243 240 238 236 236 235 234 232 231 231 230 229 228 226 221 217 215 216 219 220 219 219 218 218 223 230 234 243 249 251 254 267 302 323 333 330 315 278 328 32 13
228 231 226 216 210 210 210 211 213 214 216 220 221 217 214 218 230 244 251 252 250 246 243 241 237 234 234 234 234 233 232 230 228 227 228 226 220 217 218 219 221 222 222 222 221 220 225 231 235 243 250 255 263 273 287 304 314 308 281 245 232 227 240
233 237 230 216 211 212 213 213 214 213 213 218 222 221 218 223 233 241 244 245 243 242 242 239 235 236 238 234 233 235 234 229 228 230 230 227 224 225 225 222 222 223 224 225 225 223 226 232 237 242 248 254 261 269 277 287 299 296 269 246 237 230 250
237 242 233 217 212 214 215 216 216 215 214 217 219 219 219 223 231 240 243 242 239 239 241 240 239 246 249 239 234 237 235 230 232 234 232 229 230 231 230 227 226 226 226 227 227 227 228 232 237 242 247 253 256 261 269 278 291 294 272 251 242 239 279
239 240 229 218 215 215 215 216 217 217 217 218 217 217 219 223 231 241 242 238 238 240 241 240 242 251 251 240 234 236 235 233 235 236 234 233 235 235 235 236 236 234 230 227 227 228 229 231 236 241 246 251 255 259 266 273 284 289 273 254 246 248 278
239 236 225 218 216 215 214 215 216 217 218 219 217 217 220 225 230 235 236 236 239 242 241 240 243 250 251 242 236 236 235 235 236 236 236 239 241 239 239 241 243 243 240 234 230 228 229 231 234 239 245 252 256 259 264 270 278 281 272 259 248 244 263
237 234 224 217 216 216 215 215 215 216 219 223 221 219 222 228 231 234 237 239 241 242 241 240 243 249 252 247 242 238 236 235 235 236 238 242 244 243 242 242 245 246 245 241 233 227 227 230 233 238 244 251 256 261 265 269 273 277 275 264 252 249 257